Location: Goutevernisse
(43.2118°N, 1.1715°E)
Time: 19:37:40
(UTC+00:00)

Daily predictions for brighter satellites

Satellite Brightness Start Highest point End
(mag) Time Altitude Azimuth Time Altitude Azimuth Time Altitude Azimuth
Cosmos 2016 Rocket 4.0 18:36:11 10° S 18:42:12 67° E 18:48:15 10° NNE
Resurs 1-3 3.8 18:39:47 10° SSE 18:43:58 51° ENE 18:48:11 10° N
Cosmos 1864 Rocket 4.5 18:39:05 10° S 18:45:18 78° E 18:51:30 10° N
SPOT 1/Viking Rocket 3.7 18:42:30 10° SSE 18:47:31 53° ENE 18:52:33 10° N
Landsat 7 4.3 18:43:54 10° S 18:48:34 66° W 18:53:15 10° NNW
DMSP B5D1-3 4.5 18:44:54 10° NNE 18:49:59 72° ESE 18:55:02 10° S
ATLAS 2AS CENTAUR R/B 4.2 18:43:58 10° WSW 18:50:47 40° NW 18:57:23 10° NNE
USA 306 4.0 18:50:26 10° SSE 18:52:04 14° SE 18:53:50 10° E
ATLAS CENTAUR R/B 2.9 18:51:04 10° NW 18:56:00 87° NE 19:03:52 10° SE
Cosmos 2360 Rocket 2.5 18:50:24 10° SSW 18:56:02 73° WNW 19:01:42 10° NNE
ARGOS Delta rocket 4.4 18:51:13 10° SE 18:56:07 42° ENE 19:00:47 10° N
Cosmos 1898 Rocket 3.5 18:51:34 10° NNW 18:56:55 80° ENE 19:02:11 10° SSE
Okean O Rocket 3.2 18:54:41 10° ESE 18:57:37 18° ENE 19:00:33 10° NNE
Cosmos 1151 Rocket 3.0 18:54:27 10° N 18:58:40 57° E 19:02:50 10° SSE
Cosmos 1340 2.6 18:55:38 10° SSE 18:58:45 43° E 19:01:52 10° NNE
USA 186 2.9 18:58:19 10° SE 19:00:59 25° ENE 19:03:42 10° NNE
Meteor PRIRODA 3.3 18:57:59 10° SSE 19:01:15 61° ENE 19:04:32 10° N
Resurs 01 Rocket 2.4 18:58:00 10° SE 19:01:57 32° ENE 19:05:54 10° N
Cosmos 2322 Rocket 3.3 18:59:28 10° SW 19:04:59 50° WNW 19:10:33 10° NNE
Cosmos 2237 Rocket 3.8 19:04:46 11° E 19:05:13 12° E 19:07:02 10° ENE
ACS3 Solar Sail 2.8 19:05:09 10° ESE 19:10:26 29° ENE 19:15:48 10° N
Helios 1A 2.8 19:06:45 10° NNE 19:10:50 75° ESE 19:14:52 10° S
BlueWalker 3 3.6 19:09:33 10° NW 19:12:38 23° NNE 19:15:32 11° ENE
Cosmos 2333 Rocket 3.0 19:07:18 10° SW 19:12:57 58° WNW 19:18:40 10° NNE
Okean-O 4.4 19:12:11 13° E 19:13:50 15° ENE 19:16:23 10° NNE
Cosmos 44 Rocket 3.7 19:09:38 10° NNW 19:14:12 43° NE 19:17:37 16° ESE
SAR-Lupe-2 4.4 19:12:48 10° S 19:16:19 53° W 19:19:50 10° NNW
Cosmos 2219 Rocket 2.2 19:11:13 10° SSW 19:16:54 88° ESE 19:22:37 10° NNE
SL-08 R/B 3.7 19:13:22 10° N 19:18:17 74° WNW 19:23:11 10° SSW
ATLAS 3B R/B 3.5 19:11:25 10° NW 19:19:10 63° WSW 19:26:41 10° SSE
Meteor 1-5 Rocket 4.4 19:14:39 10° SSW 19:20:13 81° W 19:26:02 10° N
CSL-04 Rocket 4.0 19:16:59 10° SE 19:22:07 47° ENE 19:27:13 10° N
BREEZE-M DEB (TANK) 2.6 19:21:08 10° W 19:23:11 42° NNW 19:25:16 12° NE
Cosmos 1626 3.1 19:20:23 10° NNW 19:23:13 38° W 19:26:01 10° SSW
Cosmos 1842 4.1 19:23:47 10° NNE 19:26:54 27° ENE 19:27:54 23° ESE
CZ-4B R/B 3.9 19:23:27 10° S 19:28:07 59° WSW 19:32:49 10° NNW
SJ-6B 3.3 19:24:47 10° S 19:28:23 55° W 19:31:58 10° NNW
USA 229 DEB 4.0 19:20:58 10° NW 19:28:32 85° NE 19:35:59 13° SE
USA 229 4.0 19:21:08 10° NW 19:28:42 84° NE 19:36:04 13° SE
Cosmos 1766 Rocket 3.6 19:26:22 10° S 19:30:34 52° E 19:34:49 10° NNE
Timation 2 Rocket 4.2 19:26:24 10° NNW 19:32:40 75° WSW 19:39:12 10° SSE
BREEZE-M R/B 4.3 19:32:42 10° WNW 19:36:54 56° NNE 19:49:00 13° E
Cosmos 2322 3.6 19:32:06 10° SSW 19:37:42 72° ESE 19:43:21 10° NNE
USA 276 4.1 19:37:58 10° NW 19:40:06 19° N 19:41:31 14° NE
GEOS 3 Rocket 4.4 19:36:39 10° SSE 19:41:42 48° WSW 19:46:44 10° NW
Cosmos 1066 Rocket 4.2 19:36:59 10° N 19:42:53 83° E 19:48:43 10° S
Cosmos 1400 Rocket 2.5 19:40:05 10° N 19:43:56 80° E 19:46:25 21° SSE
PSLV R/B 4.4 19:44:57 30° E 19:45:16 31° ENE 19:48:28 10° N
CZ-4 R/B 2.1 19:43:14 10° S 19:46:53 50° W 19:50:38 10° NNW
Cosmos 1891 Rocket 4.4 19:41:40 10° S 19:47:38 66° E 19:53:42 10° NNE
Cosmos 1726 2.9 19:45:15 10° SSW 19:47:54 38° W 19:50:36 10° N
Cosmos 1707 3.0 19:45:08 10° N 19:48:30 39° ENE 19:48:45 38° E
Cosmos 1536 3.0 19:55:08 43° E 19:55:11 43° E 19:58:49 10° NNE
COSMOS 2428 2.6 19:51:05 10° SSW 19:56:46 83° ESE 20:02:32 10° NNE
CSL-04 Debris 4.2 19:51:56 12° SSE 19:57:05 83° WSW 20:02:36 10° NNW
Cosmos 1818 3.9 19:51:43 10° SW 19:57:08 67° NW 20:02:37 10° NNE
Lacrosse 4 Rocket 1.4 19:54:28 10° NNW 19:58:49 88° NE 20:00:26 38° SSE
KORONAS-FOTON 3.5 19:55:08 10° N 19:58:50 74° E 19:59:47 47° SSE
Meteor 1-4 Rocket 2.6 20:00:23 10° N 20:02:21 43° N 20:02:21 43° N
Nadezhda 4 Rocket 4.2 19:57:04 10° N 20:03:06 49° ENE 20:05:35 33° SE
Cosmos 1356 Rocket 3.5 19:59:00 10° N 20:03:09 57° ENE 20:03:51 49° ESE
Meteor 1-14 Rocket 4.1 19:59:06 10° S 20:04:39 89° ESE 20:10:13 10° N
Cosmos 1943 Rocket 3.0 20:00:24 10° N 20:05:18 32° NE 20:06:27 29° ENE
Cosmos 1513 Rocket 4.3 20:00:29 10° S 20:06:32 84° E 20:12:37 10° N
Cosmos 1674 3.1 20:03:45 10° NNW 20:07:00 50° W 20:08:23 29° SSW
Cosmos 1328 Rocket 3.9 20:04:00 10° NNW 20:08:16 63° W 20:11:04 20° S
Terra 3.0 20:09:10 25° ENE 20:09:10 25° ENE 20:12:48 10° NNE
Cosmos 1464 Rocket 3.9 20:03:50 10° S 20:10:03 69° E 20:16:22 10° NNE
USA 59 Rocket 0.3 20:06:56 10° NNW 20:10:51 60° NE 20:11:54 48° ESE
Meteor 1-11 Rocket 3.8 20:09:42 32° SSE 20:12:06 53° E 20:17:32 10° NNE
Ariane Rocket 4.4 20:14:46 22° ENE 20:14:46 22° ENE 20:18:19 10° NNE
Cosmos 1125 Rocket 4.0 20:13:25 10° N 20:18:19 41° ENE 20:18:45 40° ENE
ERS-1 Rocket 3.5 20:19:35 39° ENE 20:19:42 39° ENE 20:24:21 10° N
CZ-4B R/B 4.0 20:15:08 10° S 20:20:24 50° W 20:25:42 10° NNW
USA 290 3.4 20:17:36 10° NNW 20:19:44 35° N 20:19:44 35° N
Meteor 2-9 Rocket 4.1 20:20:43 50° ESE 20:21:18 53° E 20:26:31 10° NNE
Cosmos 2278 Rocket 2.2 20:16:04 10° NNW 20:21:43 62° ENE 20:22:58 49° ESE
USA 306 3.0 20:20:54 10° WSW 20:23:20 48° W 20:23:20 48° W
SPOT 5 2.7 20:24:20 62° ESE 20:24:54 70° ENE 20:29:29 10° N
IRS-1A Rocket 4.5 20:25:48 47° ESE 20:26:52 54° ENE 20:32:28 10° N
NOSS 2-1 (C) 3.5 20:23:24 10° NW 20:27:21 85° NE 20:27:52 71° SE
Cosmos 2034 Rocket 3.9 20:26:34 39° SSE 20:28:51 64° E 20:34:58 10° NNE
Okean 3 Rocket 3.9 20:28:15 24° SSW 20:30:52 66° W 20:35:20 10° N
Okean O Rocket 2.4 20:31:48 32° SSW 20:33:29 49° W 20:37:47 10° NNW
NOSS 0 Rocket 3.9 20:31:03 10° SSW 20:37:18 83° WNW 20:43:36 10° NNE
Resurs 01 Rocket 3.7 20:34:45 10° SSW 20:38:23 25° W 20:42:02 10° NW
USA 215 3.1 20:36:53 10° NE 20:43:25 65° SE 20:49:53 10° SW
MOS 1 Rocket 3.3 20:45:58 83° ENE 20:45:58 83° ENE 20:51:09 10° N
Cosmos 2237 Rocket 2.0 20:46:17 41° SSW 20:48:20 86° ESE 20:53:59 10° NNE
Okean-O 3.0 20:49:39 58° WSW 20:49:44 58° W 20:54:05 10° NNW
BlueWalker 3 3.2 20:47:21 10° NW 20:49:46 38° NW 20:49:46 38° NW
Aureole 3 Rocket 4.1 20:47:44 28° S 20:52:07 86° E 20:57:57 10° N
ACS3 Solar Sail 2.5 20:50:27 24° SSW 20:54:10 51° W 21:00:25 10° NNW
Cosmos 1515 Rocket 4.4 20:50:12 10° NNW 20:54:20 44° W 20:54:36 43° WSW
Sich 1 4.3 20:57:04 33° N 20:57:04 33° N 20:59:30 10° N
MetOp-B 4.4 20:59:07 58° SW 20:59:47 64° WSW 21:05:08 10° NNW
NOSS 2-1 (E) 4.5 20:59:24 10° NW 21:02:59 48° WSW 21:02:59 48° WSW
BREEZE-M DEB (TANK) 4.2 20:51:55 10° W 21:08:55 55° N 21:10:46 39° NE
IRS-1C Rocket 4.3 21:14:37 65° WNW 21:14:37 65° WNW 21:19:32 10° NNW
Cosmos 1980 4.3 21:11:35 10° SW 21:17:08 54° WNW 21:22:43 10° NNE
USA 267 3.6 21:16:20 49° NE 21:17:13 53° NNE 21:23:33 10° NW
Spot 2 Rocket 4.1 21:21:59 51° NNW 21:21:59 51° NNW 21:25:46 10° NNW
Cosmos 2369 Rocket 3.7 21:17:54 10° N 21:21:39 26° NE 21:21:39 26° NE
SL-16 R/B 4.2 21:49:08 20° NNE 21:49:08 20° NNE 21:50:44 10° NNE
Terra 3.6 21:47:52 29° WNW 21:47:52 29° WNW 21:50:42 10° NNW
NOSS 3-4 (A) 4.5 21:41:43 10° NNW 21:47:59 44° NE 21:47:59 44° NE
NOSS 3-4 (C) 4.5 21:41:49 10° NNW 21:48:05 44° NE 21:48:05 44° NE
Cosmos 1943 Rocket 3.4 21:44:00 10° NW 21:47:58 35° WNW 21:47:58 35° WNW
Ariane Rocket 4.5 21:54:54 34° NW 21:54:54 34° NW 21:57:59 10° NNW
USA 59 Rocket 2.8 21:57:14 10° WNW 21:58:17 14° W 21:58:17 14° W
Cosmos 2278 Rocket 4.2 22:01:17 10° NW 22:04:48 19° W 22:04:48 19° W
USA 215 4.1 22:20:04 10° NE 22:26:15 46° NNW 22:32:25 10° W
Cosmos 2369 Rocket 4.3 23:01:29 10° NW 23:03:25 21° NW 23:03:25 21° NW
SL-16 R/B 4.5 23:30:57 19° NNW 23:30:57 19° NNW 23:33:52 10° N
